Flag for Canada Weather past 2 weeks in Fort St. John, British Columbia, Canada

Now
5 °F

Passing clouds.


Feels Like: -9 °F
Forecast: 12 / 17 °F
Wind: 9 mph from North

Location: Fort St John

Current Time: Jan 27, 2015 at 9:24:38 PM

Latest Report: Jan 27, 2015 at 9:00 PM


Visibility: 15 mi

Pressure: 30.09 "Hg

Humidity: 85%

Dew point: 1 °F

Location of Fort St. JohnLocation

Historic Weather in Fort St. John — Graph

°F

Fort St. John temperature yesterday

Maximum temperature yesterday: 39 °F (at 12:00 AM)
Minimum temperature yesterday: 28 °F (at 11:00 PM)
Average temperature yesterday: 35 °F

Past Weeks' High & Low Weather Summary

 TemperatureHumidityPressure
High45 °F (Jan 25, 4:00 AM)93% (Jan 12, 8:00 PM)30.28 "Hg (Jan 12, 8:00 PM)
Low7 °F (Jan 27, 8:00 PM)48% (Jan 16, 2:00 PM)29.44 "Hg (Jan 16, 5:00 AM)
Average34 °F70%29.84 "Hg
* Reported Jan 12 8:00 PM — Jan 27 8:00 PM, Fort St. John, Weather by CustomWeather, © 2014

Note: Actual official high and low records may vary slightly from our data, if they occured in-between our weather recording intervals... More about our weather records

Advertising

Fort St. John weather history for previous 24 hours

 ConditionsComfort  
Time TempWeatherWind HumidityBarometerVisibility
8:00 PM
Jan 27
7 °FLight snow. Overcast.9 mph85%30.06 "Hg5 mi
7:00 PM9 °FLight snow. Overcast.12 mph78%30.04 "Hg3 mi
6:00 PM10 °FLight snow. Overcast.9 mph79%30.02 "Hg2 mi
5:00 PM10 °FLight snow. Overcast.10 mph79%29.99 "Hg3 mi
4:00 PM10 °FLight snow. Overcast.14 mph79%29.98 "Hg15 mi
3:00 PM12 °FLight snow. Overcast.14 mph79%29.97 "Hg10 mi
2:00 PM12 °FLight snow. Overcast.15 mph79%29.96 "Hg10 mi
1:00 PM12 °FLight snow. Overcast.14 mph85%29.95 "Hg5 mi
12:00 PM14 °FLight snow. Overcast.14 mph85%29.95 "Hg3 mi
11:00 AM14 °FLight snow. Overcast.14 mph85%29.94 "Hg1 mi
10:00 AM14 °FLight snow. Overcast.13 mph85%29.94 "Hg2 mi
9:00 AM14 °FLight snow. Overcast.14 mph85%29.93 "Hg2 mi
8:00 AM16 °FLight snow. Overcast.13 mph86%29.93 "Hg3 mi
7:00 AM16 °FLight snow. Overcast.13 mph93%29.92 "Hg4 mi
6:00 AM18 °FLight snow. Low clouds.13 mph86%29.92 "Hg1 mi
5:52 AM18 °FLight snow. Overcast.13 mph86%29.92 "Hg3 mi
5:00 AM18 °FLight snow. Low clouds.15 mph86%29.91 "Hg1 mi
4:00 AM18 °FLight snow. Low clouds.15 mph86%29.93 "Hg1 mi
3:00 AM19 °FLight snow. Low clouds.16 mph86%29.91 "Hg2 mi
2:00 AM21 °FLight snow. Low clouds.12 mph86%29.90 "Hg2 mi
1:00 AM23 °FLight snow. Low clouds.12 mph86%29.90 "Hg2 mi
12:00 AM28 °FLight snow. Mostly cloudy.9 mph69%29.89 "Hg6 mi
11:00 PM
Jan 26
28 °FLight snow. Overcast.13 mph69%29.89 "Hg15 mi
10:00 PM30 °FOvercast.13 mph64%29.88 "Hg15 mi
9:00 PM30 °FOvercast.10 mph69%29.87 "Hg15 mi
Weather by CustomWeather, © 2014

See weather overviewHow to use our weather pages